Regional Weather Roundup
Issued by NWS

Home | Current Version | Previous Version | Graphics & Text | Print | Product List | Glossary Off
Versions: 1 2 3 4 5 6 7 8 9 10 11 12 13 14 15 16 17 18 19 20 21 22 23 24 25 26 27 28 29 30 31 32 33 34 35 36 37 38 39 40 41 42 43 44 45 46 47 48 49 50

000
ASUS43 KTOP 220159
RWRKS

WEATHER ROUNDUP FOR KANSAS
NATIONAL WEATHER SERVICE GOODLAND KS
800 PM CST TUE NOV 21 2017

NOTE:  "FAIR" INDICATES FEW OR NO CLOUDS BELOW 12,000 FEET WITH NO
SIGNIFICANT WEATHER AND/OR OBSTRUCTIONS TO VISIBILITY.

KSZ001>006-013>018-027>032-041>047-220300-
NORTHWEST KANSAS

CITY           SKY/WX    TMP DP  RH WIND       PRES   REMARKS
GOODLAND       CLEAR     29  22  75 SW6       30.34R
HAYS           CLOUDY    31  14  49 NE6       30.39R
HILL CITY      CLOUDY    30  14  51 NE9       30.38R
RUSSELL        CLOUDY    29  12  49 NE9       30.38R
$$

KSZ061>065-074>080-084>089-220300-
SOUTHWEST KANSAS

CITY           SKY/WX    TMP DP  RH WIND       PRES   REMARKS
DODGE CITY     CLEAR     31  19  61 N8        30.38R
GARDEN CITY    CLEAR     33  20  58 N7        30.38R
GREAT BEND     CLOUDY    30  15  53 N9        30.39R
LIBERAL        CLEAR     39  24  55 NE7       30.38R
$$

KSZ066>073-081>083-090>101-220300-
SOUTHEAST KANSAS

CITY           SKY/WX    TMP DP  RH WIND       PRES   REMARKS
CHANUTE        CLEAR     36  17  46 N9        30.34R
COFFEYVILLE    CLEAR     41  14  33 N15       30.32R
HUTCHINSON     CLEAR     34   8  33 N10       30.37R WCI  26
MEDICINE LODGE   N/A     36  16  44 N6        30.38R
NEWTON         CLEAR     32  12  43 N15       30.37R WCI  22
PARSONS        CLEAR     38  16  40 N9        30.33R
WICHITA INTL   CLEAR     38   8  29 N15       30.35R WCI  29
WICHITA JABRA  CLEAR     33  10  38 N12       30.35R WCI  24
WICHITA MCCONL CLEAR     37   7  29 N17G23    30.34R WCI  27
WINFIELD       CLEAR     37   9  31 N10       30.36R WCI  30
$$

KSZ007>012-019>026-033>040-048>060-102>105-220300-
NORTHEAST KANSAS

CITY           SKY/WX    TMP DP  RH WIND       PRES   REMARKS
CONCORDIA      CLOUDY    26  12  55 N7        30.41R
EMPORIA        CLEAR     31  15  52 N10       30.37R WCI  22
LAWRENCE       CLEAR     30  17  58 NW9       30.38R
MANHATTAN      CLOUDY    30  13  49 N5        30.41R
OLATHE IND     CLEAR     30  17  58 N14       30.36R WCI  19
OLATHE EXE     CLEAR     32  16  51 N13       30.34R WCI  22
SALINA         CLEAR     34  13  41 N12       30.42R WCI  25
TOPEKA BILLARD CLEAR     30  16  56 NW9       30.39R
TOPEKA FORBES  CLEAR     32  15  49 N12       30.38R WCI  23
$$




USA.gov is the U.S. government's official web portal to all federal, state and local government web resources and services.